Flag for Germany Weather past 2 weeks in Böblingen, Baden-Württemberg, Germany

Now
34 °F

Clear.


Feels Like: 31 °F
Forecast: 21 / 37 °F
Wind: 3 mph from East

Location: Stuttgart-Echterdingen

Current Time: Feb 27, 2015 at 1:56:33 AM

Latest Report: Feb 27, 2015 at 1:20 AM


Visibility: 10 mi

Pressure: 29.89 "Hg

Humidity: 75%

Dew point: 27 °F

Location of BöblingenLocation

Historic Weather in Böblingen — Graph

°F

Böblingen temperature yesterday

Maximum temperature yesterday: 48 °F (at 1:50 PM)
Minimum temperature yesterday: 27 °F (at 2:50 AM)
Average temperature yesterday: 37 °F

Past Weeks' High & Low Weather Summary

 TemperatureHumidityPressure
High55 °F (Feb 20, 2:20 PM)100% (Feb 12, 12:20 AM)30.69 "Hg (Feb 12, 12:20 AM)
Low23 °F (Feb 12, 5:50 AM)34% (Feb 26, 3:20 PM)29.50 "Hg (Feb 23, 3:20 PM)
Average35 °F82%30.02 "Hg
* Reported Feb 12 12:20 AM — Feb 27 12:50 AM, Böblingen, Weather by CustomWeather, © 2015

Note: Actual official high and low records may vary slightly from our data, if they occured in-between our weather recording intervals... More about our weather records

Advertising

Böblingen weather history for previous 24 hours

 ConditionsComfort  
Time TempWeatherWind HumidityBarometerVisibility
12:50 AM
Fri, Feb 27
34 °FClear.1 mph70%29.89 "Hg10 mi
12:20 AM34 °FClear.2 mph70%29.89 "Hg10 mi
11:50 PM
Thu, Feb 26
34 °FClear.1 mph70%29.92 "Hg10 mi
11:20 PM36 °FClear.No wind60%29.92 "Hg10 mi
10:50 PM36 °FClear.2 mph60%29.92 "Hg10 mi
10:20 PM36 °FClear.2 mph65%29.95 "Hg10 mi
9:50 PM36 °FClear.2 mph65%29.95 "Hg10 mi
9:20 PM36 °FClear.2 mph60%29.95 "Hg10 mi
8:50 PM37 °FClear.2 mph52%29.98 "Hg10 mi
8:20 PM37 °FClear.2 mph56%29.98 "Hg10 mi
7:50 PM37 °FClear.3 mph60%29.98 "Hg10 mi
7:20 PM39 °FPassing clouds.3 mph52%30.01 "HgN/A
6:50 PM41 °FPassing clouds.5 mph53%30.01 "HgN/A
6:20 PM43 °FClear.5 mph49%30.01 "Hg10 mi
5:50 PM43 °FSunny.7 mph49%30.01 "Hg10 mi
5:20 PM46 °FSunny.8 mph43%30.01 "Hg10 mi
4:50 PM46 °FSunny.8 mph43%30.01 "Hg10 mi
4:20 PM48 °FSunny.8 mph40%30.01 "Hg10 mi
3:50 PM48 °FPassing clouds.7 mph40%30.04 "HgN/A
3:20 PM48 °FPassing clouds.6 mph34%30.04 "HgN/A
2:50 PM48 °FPassing clouds.6 mph40%30.04 "HgN/A
2:20 PM48 °FPassing clouds.6 mph43%30.07 "HgN/A
1:50 PM48 °FPassing clouds.7 mph43%30.07 "HgN/A
1:20 PM46 °FPassing clouds.5 mph50%30.09 "HgN/A
12:50 PM46 °FPassing clouds.5 mph43%30.09 "HgN/A
12:20 PM46 °FPassing clouds.7 mph46%30.12 "HgN/A
11:50 AM45 °FPassing clouds.6 mph57%30.12 "HgN/A
11:20 AM43 °FPassing clouds.5 mph57%30.12 "HgN/A
10:50 AM41 °FPassing clouds.3 mph66%30.12 "HgN/A
10:20 AM39 °FSunny.2 mph75%30.12 "Hg10 mi
9:50 AM37 °FSunny.1 mph81%30.15 "Hg10 mi
9:20 AM36 °FSunny.1 mph81%30.15 "Hg10 mi
8:50 AM32 °FSunny.1 mph87%30.15 "Hg10 mi
8:20 AM30 °FSunny.2 mph93%30.15 "Hg10 mi
7:50 AM27 °FSunny.1 mph100%30.15 "Hg10 mi
6:50 AM27 °FClear.1 mph93%30.15 "Hg10 mi
6:20 AM27 °FClear.1 mph93%30.15 "Hg10 mi
5:50 AM27 °FClear.1 mph93%30.15 "Hg10 mi
4:50 AM27 °FClear.2 mph100%30.15 "Hg10 mi
4:20 AM27 °FClear.1 mph93%30.15 "Hg10 mi
3:50 AM27 °FClear.3 mph93%30.15 "Hg10 mi
3:20 AM27 °FClear.2 mph93%30.15 "Hg10 mi
2:50 AM27 °FClear.1 mph93%30.15 "Hg10 mi
2:20 AM28 °FClear.3 mph93%30.15 "Hg10 mi
1:50 AM28 °FClear.1 mph93%30.15 "Hg10 mi
1:20 AM28 °FClear.1 mph100%30.15 "Hg10 mi
Weather by CustomWeather, © 2015

See weather overviewHow to use our weather pages